Location: Austin
(30.3000°N, 97.7500°W)
Time: 08:29:02
(UTC-05:00)

Envisat - Visible Passes

Search period start: 24 July 2024 00:00
Search period end: 03 August 2024 00:00
Orbit: 762 x 764 km, 98.3° (Epoch: 24 July)

Date Brightness Start Highest point End Pass type
(mag) Time Alt. Az. Time Alt. Az. Time Alt. Az.
24 Jul 3.5 04:18:07 10° NNE 04:23:04 52° E 04:24:12 43° SE visible
24 Jul 4.9 05:59:00 10° NW 06:01:31 14° WNW 06:04:02 10° W visible
25 Jul 4.9 03:41:48 10° NE 03:45:33 21° E 03:46:19 20° ESE visible
25 Jul 3.8 05:19:58 10° N 05:24:29 33° WNW 05:26:28 25° WSW visible
26 Jul 2.9 04:42:10 10° N 04:47:15 85° WNW 04:48:34 51° SSW visible
27 Jul 4.0 04:05:09 10° NNE 04:09:49 37° E 04:10:39 35° ESE visible
27 Jul 4.5 05:44:58 10° NNW 05:48:27 19° WNW 05:50:49 14° WSW visible
28 Jul 5.3 03:29:27 10° ENE 03:32:15 15° E 03:32:46 15° E visible
28 Jul 3.4 05:06:31 10° N 05:11:21 46° WNW 05:12:55 35° WSW visible
29 Jul 3.1 04:28:59 10° NNE 04:34:03 70° ESE 04:35:01 55° SSE visible
29 Jul 5.1 06:11:39 10° WNW 06:12:20 10° WNW 06:13:02 10° WNW visible
30 Jul 4.5 03:52:18 10° NE 03:56:35 27° E 03:57:07 27° ESE visible
30 Jul 4.1 05:31:15 10° NNW 05:35:22 26° WNW 05:37:15 20° WSW visible
31 Jul 5.7 03:18:26 10° E 03:18:56 10° E 03:19:12 10° E visible
31 Jul 3.0 04:53:10 10° N 04:58:11 64° WNW 04:59:21 49° SW visible
01 Aug 3.6 04:15:54 10° NNE 04:20:49 50° E 04:21:27 47° SE visible
01 Aug 4.8 05:56:37 10° NW 05:59:17 14° WNW 06:01:36 11° W visible
02 Aug 5.0 03:39:38 10° NE 03:43:17 20° E 03:43:33 20° E visible
02 Aug 3.7 05:17:41 10° N 05:22:15 35° WNW 05:23:41 29° WSW visible
